Location: Praha
(50.0830°N, 14.4670°E)
Time: 22:32:13
(UTC+02:00)

ISS - Pass Details

Date: 19 September 2019
Orbit: 411 x 421 km, 51.6° (Epoch: 19 September)

Event Time Altitude Azimuth Distance (km) Brightness Sun altitude
Rises 20:35:36 0° 207° (SSW) 2,332 0.1 -14.6°
Reaches altitude 10° 20:38:03 10° 189° (S) 1,474 -1.1 -15.0°
Enters shadow 20:39:17 16° 170° (S) 1,162 -1.8 -15.1°
